Tracking 31027 objects as of 19-Jul-2025
HD Live streaming from Space Station
objects crossing your sky now

CRRES DEB (CANISTER)

Track CRRES DEB (CANISTER) now!


NORAD ID: 21588
Int'l Code: 1990-065D
Perigee: 398.0 km
Apogee: 32,214.1 km
Inclination: 18.5 °
Period: 566.4 minutes
Semi major axis: 22677 km
RCS: 0.1213 m2 (medium)
Launch date: July 25, 1990
Source: United States (US)
Launch site: AIR FORCE EASTERN TEST RANGE (AFETR)

Note: This is SATELLITE DEBRIS
Your satellite tracking list
ATLAS 5 CENTAUR DEB
Track 1 satellite(s)




NASA's NSSDC Master Catalog

Two Line Element Set (TLE):
1 21588U 90065D   25198.32033893  .00000392  00000-0  69530-3 0  9990
2 21588  18.5261 320.7481 7015029 213.3363  71.0611  2.54227647117676
Source of the keplerian elements: AFSPC